Location: *
(46.3500°N, 10.9000°E)
Time: 22:58:29
(UTC+00:00)

Explorer 7 - Pass Details

Date: 26 April 2021
Orbit: 484 x 677 km, 50.3° (Epoch: 06 May)

Event Time Altitude Azimuth Distance (km) Brightness Sun altitude
Rises 17:40:13 0° 246° (WSW) 2,575 11.2 5.5°
Reaches altitude 10° 17:42:21 10° 247° (WSW) 1,714 10.3 5.2°
Maximum altitude 17:46:13 88° 333° (NNW) 529 6.9 4.5°
Drops below altitude 10° 17:50:21 10° 67° (ENE) 1,817 9.0 3.8°
Sets 17:52:40 0° 68° (ENE) 2,748 9.9 3.4°
